Вернуться в каталог

IRIDIUM 102

АктивенСвязьPO
NORAD 41920·PAYLOAD·🇺🇸 United States

Запущен Jan 14, 2017 с Vandenberg Space Force Base

Loading…

Ближайшие Пролёты (ближайшие 24 часа)

TLE

СвежийSource: CelesTrak SupGP

Эпоха: Sep 14, 2026, 21:35 UTC

1 41920C 17003D   26257.89965278  .00002988  00000+0  10683-2 0  2576
2 41920  86.3948  50.8992 0002094  93.7615 165.0877 14.34216952    17

Отслеживайте IRIDIUM 102 в реальном времени с AllMySat

Download on the App Store